Overview Statistics Trail Chart Weather Telemetry Raw packets
 

This is the latest recevied weather packets stored in our database for station/object SV9TNF-56. If no packets are shown the sender has not sent any weather packets the latest 10 day(s).

<< 94 95 96 97 98 99 100 >>
Time Temp. Humidity Pressure Rain* Wind** Luminosity Snow
1787958095 24.44° C 77% 1019 hPa 0 mm 23.25 m/s, 24° - -
1787957794 24.44° C 78% 1019 hPa 0 mm 16.99 m/s, 48° - -
1787957494 25° C 77% 1019 hPa 0 mm 18.33 m/s, 83° - -
1787957194 25° C 75% 1019.3 hPa 0 mm 25.93 m/s, 36° - -
1787956894 25.56° C 74% 1019.3 hPa 0 mm 25.48 m/s, 46° - -
1787956594 25.56° C 70% 1019.3 hPa 0 mm 5.36 m/s, 93° - -
1787956294 25.56° C 68% 1019 hPa 0 mm 1.79 m/s, 154° - -
1787955994 25.56° C 67% 1019 hPa 0 mm 6.71 m/s, 182° - -
1787955694 25.56° C 65% 1019 hPa 0 mm 12.07 m/s, 116° - -
1787955394 25.56° C 65% 1019 hPa 0 mm 4.92 m/s, 246° - -
1787955093 25.56° C 64% 1019.3 hPa 0 mm 12.07 m/s, 300° - -
1787954794 25.56° C 63% 1019.3 hPa 0 mm 6.26 m/s, 252° - -
1787954493 25.56° C 62% 1019 hPa 0 mm 12.52 m/s, 260° - -
1787954193 25.56° C 62% 1019 hPa 0 mm 15.2 m/s, 246° - -
1787953893 25.56° C 64% 1019 hPa 0 mm 6.26 m/s, 258° - -
1787953593 25.56° C 64% 1019 hPa 0 mm 6.26 m/s, 141° - -
1787953293 25.56° C 65% 1019 hPa 0 mm 12.52 m/s, 284° - -
1787952993 25.56° C 66% 1019 hPa 0 mm 4.47 m/s, 48° - -
1787952692 25.56° C 65% 1018.6 hPa 0 mm 8.05 m/s, 121° - -
1787952393 25.56° C 65% 1018.6 hPa 0 mm 9.83 m/s, 198° - -
1787952093 25.56° C 64% 1019 hPa 0 mm 7.15 m/s, 104° - -
1787951792 25.56° C 64% 1018.6 hPa 0 mm 5.81 m/s, 245° - -
1787951492 25.56° C 64% 1019 hPa 0 mm 6.71 m/s, 104° - -
1787951192 25.56° C 65% 1019 hPa 0 mm 12.52 m/s, 108° - -
1787950892 25.56° C 65% 1019 hPa 0 mm 7.6 m/s, 68° - -

* Rain latest hour (hover to see other rain measurements)
** Current wind speed in m/s (hover to see current wind gust speed)